Location: Leuk
(46.3174°N, 7.6341°E)
Time: 13:47:23
(UTC+00:00)

Cosmos 1833 - Pass Details

Date: 09 March 2021
Orbit: 836 x 863 km, 70.9° (Epoch: 19 April)

Event Time Altitude Azimuth Distance (km) Brightness Sun altitude
Exits shadow 03:48:16 49° 252° (WSW) 1,066 4.3 -22.2°
Maximum altitude 03:49:27 61° 300° (WNW) 951 4.2 -22.0°
Drops below altitude 10° 03:55:02 10° 21° (NNE) 2,458 7.1 -21.1°
Sets 03:57:32 0° 25° (NNE) 3,397 7.9 -20.7°
